Location: Unspecified
(0.0000°N, 0.0000°E)
Time: 17:09:23
(UTC+02:00)

JASON 3 - Pass Details

Date: 07 October 2021
Orbit: 1332 x 1343 km, 66.0° (Epoch: 27 October)

Event Time Altitude Azimuth Distance (km) Brightness Sun altitude
Rises 05:41:58 0° 171° (S) 4,344 ? -31.3°
Reaches altitude 10° 05:45:50 10° 154° (SSE) 3,371 ? -30.3°
Maximum altitude 05:51:20 20° 111° (ESE) 2,704 ? -29.0°
Drops below altitude 10° 05:56:48 10° 68° (ENE) 3,371 ? -27.6°
Sets 06:00:37 0° 52° (NE) 4,343 ? -26.7°
